• In France
  • List of Countries
  • For 7 days
  • Water Temperature
  • Satellite Maps
  • Weather Map
  • Weather Widgets
  • user-avatar
    Login

    Hourly Weather Szekesfehervar

    Today, 17 January, Wednesday

    Time Temperature Precipitation Wind Pressure Humidity
    00:00 +1°C° 0 mm 3 mps 739 mmHg 88%
    01:00 +1°C° 0 mm 2 mps 738 mmHg 87%
    02:00 +3°C° 0.1 mm 1 mps 738 mmHg 87%
    03:00 +3°C° 0.1 mm 1 mps 737 mmHg 86%
    04:00 +3°C° 0.1 mm 1 mps 737 mmHg 86%
    05:00 +3°C° 0.2 mm 1 mps 736 mmHg 86%
    06:00 +3°C° 0.2 mm 1 mps 736 mmHg 87%
    07:00 +3°C° 0 mm 1 mps 736 mmHg 85%
    08:00 +3°C° 0.1 mm 1 mps 736 mmHg 84%
    09:00 +4°C° 0.1 mm 1 mps 736 mmHg 82%
    10:00 +4°C° 0.1 mm 1 mps 736 mmHg 81%
    11:00 +4°C° 0.2 mm 1 mps 736 mmHg 81%
    12:00 +5°C° 0.2 mm 1 mps 737 mmHg 81%
    13:00 +5°C° 0.2 mm 1 mps 737 mmHg 81%
    14:00 +3°C° 0.1 mm 3 mps 737 mmHg 81%
    15:00 +3°C° 0.1 mm 4 mps 737 mmHg 81%
    16:00 +1°C° 0.1 mm 5 mps 737 mmHg 81%
    17:00 +1°C° 0 mm 6 mps 738 mmHg 76%
    18:00 0°C° 0 mm 7 mps 739 mmHg 71%
    19:00 0°C° 0 mm 8 mps 739 mmHg 65%
    20:00 -1°C° 0 mm 8 mps 740 mmHg 66%
    21:00 -1°C° 0 mm 8 mps 741 mmHg 66%
    22:00 -2°C° 0 mm 7 mps 742 mmHg 66%
    23:00 -2°C° 0 mm 7 mps 742 mmHg 67%

    Tomorrow, 18 January, Thursday

    Time Temperature Precipitation Wind Pressure Humidity
    00:00 -2°C° 0 mm 7 mps 743 mmHg 68%
    01:00 -2°C° 0 mm 6 mps 743 mmHg 69%
    02:00 -2°C° 0.2 mm 6 mps 744 mmHg 72%
    03:00 -2°C° 0.2 mm 6 mps 744 mmHg 74%
    04:00 -2°C° 0.2 mm 6 mps 745 mmHg 77%
    05:00 -2°C° 0 mm 6 mps 746 mmHg 75%
    06:00 -2°C° 0 mm 6 mps 746 mmHg 74%
    07:00 -2°C° 0 mm 6 mps 747 mmHg 72%
    08:00 -1°C° 0 mm 6 mps 747 mmHg 69%
    09:00 +1°C° 0 mm 6 mps 748 mmHg 66%
    10:00 +2°C° 0 mm 6 mps 748 mmHg 63%
    11:00 +2°C° 0 mm 5 mps 748 mmHg 61%
    12:00 +4°C° 0 mm 4 mps 747 mmHg 59%
    13:00 +4°C° 0 mm 4 mps 747 mmHg 56%
    14:00 +4°C° 0 mm 4 mps 746 mmHg 57%
    15:00 +4°C° 0 mm 4 mps 746 mmHg 58%
    16:00 +3°C° 0 mm 4 mps 745 mmHg 60%
    17:00 +3°C° 0 mm 5 mps 745 mmHg 60%
    18:00 +3°C° 0 mm 6 mps 744 mmHg 61%
    19:00 +3°C° 0 mm 6 mps 743 mmHg 61%
    20:00 +3°C° 0.1 mm 7 mps 743 mmHg 62%
    21:00 +3°C° 0.1 mm 7 mps 743 mmHg 62%
    22:00 +4°C° 0.1 mm 7 mps 742 mmHg 63%
    23:00 +4°C° 0.3 mm 7 mps 742 mmHg 66%

    Day after tomorrow, 19 January, Friday

    Time Temperature Precipitation Wind Pressure Humidity
    00:00 +4°C° 0.3 mm 7 mps 742 mmHg 69%
    01:00 +4°C° 0.3 mm 6 mps 742 mmHg 72%
    02:00 +3°C° 0.2 mm 5 mps 742 mmHg 75%
    03:00 +4°C° 0.2 mm 4 mps 742 mmHg 78%
    04:00 +3°C° 0.2 mm 3 mps 742 mmHg 80%
    05:00 +3°C° 0.1 mm 3 mps 743 mmHg 80%
    06:00 +4°C° 0.1 mm 3 mps 743 mmHg 80%
    07:00 +4°C° 0.1 mm 3 mps 744 mmHg 80%
    08:00 +4°C° 0.1 mm 3 mps 744 mmHg 79%
    09:00 +4°C° 0.1 mm 3 mps 745 mmHg 78%
    10:00 +4°C° 0.1 mm 3 mps 745 mmHg 77%
    11:00 +5°C° 0.1 mm 3 mps 745 mmHg 74%
    12:00 +5°C° 0.1 mm 4 mps 745 mmHg 71%
    13:00 +5°C° 0.1 mm 4 mps 745 mmHg 68%
    14:00 +5°C° 0.3 mm 3 mps 746 mmHg 70%
    15:00 +5°C° 0.3 mm 2 mps 746 mmHg 72%
    16:00 +6°C° 0.3 mm 1 mps 746 mmHg 73%
    17:00 +5°C° 0.2 mm 1 mps 747 mmHg 75%
    18:00 +5°C° 0.2 mm 1 mps 747 mmHg 76%
    19:00 +5°C° 0.2 mm 1 mps 747 mmHg 78%
    20:00 +4°C° 0 mm 1 mps 748 mmHg 79%
    21:00 +3°C° 0 mm 2 mps 748 mmHg 79%
    22:00 +3°C° 0 mm 2 mps 748 mmHg 80%
    23:00 +3°C° 0 mm 2 mps 748 mmHg 80%

    20 January, Saturday

    Time Temperature Precipitation Wind Pressure Humidity
    00:00 +3°C° 0 mm 2 mps 748 mmHg 80%
    01:00 +2°C° 0 mm 2 mps 748 mmHg 80%
    02:00 +2°C° 0 mm 2 mps 747 mmHg 80%
    03:00 +2°C° 0 mm 2 mps 747 mmHg 80%
    04:00 +1°C° 0 mm 2 mps 747 mmHg 81%
    05:00 +1°C° 0 mm 2 mps 747 mmHg 82%
    06:00 +1°C° 0 mm 2 mps 747 mmHg 82%
    07:00 +1°C° 0 mm 2 mps 747 mmHg 83%
    08:00 +1°C° 0 mm 2 mps 747 mmHg 80%
    09:00 +2°C° 0 mm 2 mps 747 mmHg 76%
    10:00 +2°C° 0 mm 3 mps 747 mmHg 73%
    11:00 +4°C° 0 mm 2 mps 747 mmHg 69%
    12:00 +4°C° 0 mm 2 mps 746 mmHg 65%
    13:00 +5°C° 0 mm 2 mps 746 mmHg 62%
    14:00 +4°C° 0 mm 2 mps 746 mmHg 65%
    15:00 +4°C° 0 mm 2 mps 746 mmHg 68%
    16:00 +4°C° 0 mm 2 mps 746 mmHg 71%
    17:00 +3°C° 0 mm 2 mps 746 mmHg 73%
    18:00 +2°C° 0 mm 2 mps 746 mmHg 75%
    19:00 +2°C° 0 mm 2 mps 746 mmHg 78%
    20:00 +1°C° 0 mm 2 mps 746 mmHg 77%
    21:00 0°C° 0 mm 3 mps 747 mmHg 77%
    22:00 0°C° 0 mm 3 mps 747 mmHg 77%
    23:00 0°C° 0 mm 3 mps 747 mmHg 76%

    21 January, Sunday

    Time Temperature Precipitation Wind Pressure Humidity
    00:00 0°C° 0 mm 3 mps 747 mmHg 75%
    01:00 0°C° 0 mm 3 mps 747 mmHg 74%
    02:00 -1°C° 0 mm 3 mps 748 mmHg 74%
    03:00 -1°C° 0 mm 3 mps 748 mmHg 74%
    04:00 -1°C° 0 mm 3 mps 748 mmHg 74%
    05:00 -1°C° 0 mm 3 mps 749 mmHg 75%
    06:00 -1°C° 0 mm 3 mps 750 mmHg 76%
    07:00 -2°C° 0 mm 4 mps 750 mmHg 77%
    08:00 -2°C° 0 mm 4 mps 751 mmHg 74%
    09:00 -1°C° 0 mm 5 mps 752 mmHg 71%
    10:00 -1°C° 0 mm 5 mps 752 mmHg 68%
    11:00 -1°C° 0 mm 6 mps 752 mmHg 65%
    12:00 -1°C° 0 mm 6 mps 753 mmHg 63%
    13:00 +1°C° 0 mm 6 mps 753 mmHg 61%
    14:00 +1°C° 0 mm 6 mps 753 mmHg 63%
    15:00 0°C° 0 mm 5 mps 753 mmHg 65%
    16:00 0°C° 0 mm 5 mps 754 mmHg 67%
    17:00 -1°C° 0 mm 4 mps 754 mmHg 70%
    18:00 -1°C° 0 mm 4 mps 755 mmHg 74%
    19:00 -1°C° 0 mm 3 mps 755 mmHg 77%
    20:00 -1°C° 0 mm 3 mps 755 mmHg 79%
    21:00 -1°C° 0 mm 3 mps 756 mmHg 80%
    22:00 -2°C° 0 mm 2 mps 756 mmHg 81%
    23:00 -2°C° 0 mm 2 mps 756 mmHg 82%

    22 January, Monday

    Time Temperature Precipitation Wind Pressure Humidity
    00:00 -2°C° 0 mm 2 mps 756 mmHg 83%
    01:00 -2°C° 0 mm 2 mps 756 mmHg 84%
    02:00 0°C° 0 mm 1 mps 756 mmHg 84%
    03:00 0°C° 0 mm 1 mps 756 mmHg 84%
    04:00 0°C° 0 mm 1 mps 756 mmHg 84%
    05:00 0°C° 0 mm 1 mps 755 mmHg 83%
    06:00 0°C° 0 mm 1 mps 755 mmHg 83%
    07:00 -1°C° 0 mm 1 mps 755 mmHg 83%
    08:00 0°C° 0 mm 1 mps 755 mmHg 78%
    09:00 -1°C° 0 mm 2 mps 755 mmHg 74%
    10:00 +1°C° 0 mm 2 mps 755 mmHg 69%
    11:00 0°C° 0 mm 3 mps 754 mmHg 67%
    12:00 +1°C° 0 mm 3 mps 754 mmHg 65%
    13:00 +1°C° 0 mm 3 mps 754 mmHg 62%
    14:00 +1°C° 0.1 mm 3 mps 754 mmHg 65%
    15:00 +2°C° 0.1 mm 2 mps 754 mmHg 69%
    16:00 +1°C° 0.1 mm 2 mps 755 mmHg 72%
    17:00 +1°C° 0 mm 2 mps 755 mmHg 74%
    18:00 +1°C° 0 mm 2 mps 755 mmHg 77%
    19:00 -1°C° 0 mm 2 mps 755 mmHg 79%
    20:00 -1°C° 0 mm 2 mps 756 mmHg 80%
    21:00 -1°C° 0 mm 2 mps 756 mmHg 81%
    22:00 -1°C° 0 mm 2 mps 756 mmHg 81%
    23:00 -1°C° 0 mm 2 mps 756 mmHg 81%
    Show more